Printer-friendly version
Follow the MPC on Twitter Follow the MPC on Facebook The MPC blog
Minor Planet Center

MPEC 2010-H05 : 2010 GP67

The following Minor Planet Electronic Circular may be linked-to from your own Web pages, but must not otherwise be redistributed electronically.

A form allowing access to any MPEC is at the bottom of this page.


Read MPEC 2010-H04 Read MPEC 2010-H06


M.P.E.C. 2010-H05                                Issued 2010 Apr. 16, 17:06 UT

     The Minor Planet Electronic Circulars contain information on unusual
         minor planets and routine data on comets.  They are published
   on behalf of Commission 20 of the International Astronomical Union by the
          Minor Planet Center, Smithsonian Astrophysical Observatory,
                          Cambridge, MA 02138, U.S.A.

             Prepared using the Tamkin Foundation Computer Network

                              MPC@CFA.HARVARD.EDU
       URL http://www.minorplanetcenter.org/iau/mpc.html  ISSN 1523-6714

                                   2010 GP67

Observations:
     K10G67P* S2010 04 11.57082 19 26 35.49 -21 45 39.4          22   R EH005C51
     K10G67P  s2010 04 11.57082 1 + 1516.6661 - 6209.3201 - 2633.1165   EH005C51
     K10G67P  S2010 04 11.70313 19 27 17.40 -21 33 59.1                 EH005C51
     K10G67P  s2010 04 11.70313 1 + 1532.4070 - 6208.4897 - 2625.7938   EH005C51
     K10G67P  S2010 04 11.83543 19 27 59.18 -21 22 15.3                 EH005C51
     K10G67P  s2010 04 11.83543 1 + 1548.0501 - 6207.1740 - 2619.5823   EH005C51
     K10G67P  S2010 04 11.96773 19 28 40.91 -21 10 31.5                 EH005C51
     K10G67P  s2010 04 11.96773 1 + 1564.3945 - 6206.5707 - 2611.6224   EH005C51
     K10G67P  S2010 04 12.10004 19 29 22.59 -20 58 45.6                 EH005C51
     K10G67P  s2010 04 12.10004 1 + 1580.8106 - 6206.2424 - 2603.2191   EH005C51
     K10G67P  S2010 04 12.49682 19 31 26.70 -20 23 26.4                 EH005C51
     K10G67P  s2010 04 12.49682 1 + 1647.7710 - 6229.2865 - 2503.8213   EH005C51
     K10G67P  S2010 04 12.56304 19 31 47.40 -20 17 30.6                 EH005C51
     K10G67P  s2010 04 12.56304 1 + 1646.3837 - 6216.0161 - 2537.5410   EH005C51
     K10G67P  S2010 04 12.62913 19 32 07.92 -20 11 37.3                 EH005C51
     K10G67P  s2010 04 12.62913 1 + 1663.8823 - 6228.5038 - 2495.0399   EH005C51
     K10G67P  S2010 04 12.76143 19 32 49.05 -19 59 47.3          21   R EH005C51
     K10G67P  s2010 04 12.76143 1 + 1679.3708 - 6226.5045 - 2489.4198   EH005C51
     K10G67P  S2010 04 12.82752 19 33 09.52 -19 53 52.7                 EH005C51
     K10G67P  s2010 04 12.82752 1 + 1696.6980 - 6238.2621 - 2447.6969   EH005C51
     K10G67P  S2010 04 12.89374 19 33 29.97 -19 47 55.5                 EH005C51
     K10G67P  s2010 04 12.89374 1 + 1695.1995 - 6224.8777 - 2482.6053   EH005C51
     K10G67P  S2010 04 12.95982 19 33 50.46 -19 42 00.7                 EH005C51
     K10G67P  s2010 04 12.95982 1 + 1713.0253 - 6236.9887 - 2439.8253   EH005C51
     K10G67P  S2010 04 13.09213 19 34 31.28 -19 30 08.2                 EH005C51
     K10G67P  s2010 04 13.09213 1 + 1729.5529 - 6236.0786 - 2431.3214   EH005C51
     K10G67P  S2010 04 13.15822 19 34 51.69 -19 24 11.5                 EH005C51
     K10G67P  s2010 04 13.15822 1 + 1747.0398 - 6247.6368 - 2388.5824   EH005C51
     K10G67P  S2010 04 13.62122 19 37 13.63 -18 42 30.4          22   R EH005C51
     K10G67P  s2010 04 13.62122 1 + 1812.6625 - 6253.6484 - 2322.1419   EH005C51
     K10G67P  S2010 04 13.75352 19 37 53.88 -18 30 34.6                 EH005C51
     K10G67P  s2010 04 13.75352 1 + 1828.4415 - 6251.4407 - 2315.4522   EH005C51
     K10G67P  S2010 04 13.88583 19 38 34.15 -18 18 37.6                 EH005C51
     K10G67P  s2010 04 13.88583 1 + 1844.2588 - 6249.2272 - 2308.7227   EH005C51
     K10G67P  S2010 04 14.01813 19 39 14.25 -18 06 39.8                 EH005C51
     K10G67P  s2010 04 14.01813 1 + 1860.9264 - 6247.7165 - 2300.3377   EH005C51
     K10G67P  S2010 04 14.15043 19 39 54.18 -17 54 40.6                 EH005C51
     K10G67P  s2010 04 14.15043 1 + 1877.1456 - 6246.0721 - 2291.9087   EH005C51

Observer details:
C51 WISE.  Measurers A. Mainzer, E. Wright, J. Bauer, T. Grav, J. Dailey, J.
    Masiero, R. Cutri, R. McMillan, R. Walker.
    (http://wise.ssl.berkeley.edu/mission_sci.html)

Orbital elements:
2010 GP67                                                Earth MOID = 0.0171 AU
Epoch 2010 July 23.0 TT = JDT 2455400.5                 MPC
M  49.65558              (2000.0)            P               Q
n   0.83950714     Peri.   44.53577     -0.25176254     +0.96044835
a   1.1128923      Node   211.45237     -0.93933414     -0.27209745
e   0.1062700      Incl.   13.17993     -0.23295280     +0.05917727
P   1.17           H   23.0           G   0.15           U   9
Residuals in seconds of arc
100411 C51  0.4+  0.4+    100412 C51  0.3-  0.3-    100413 C51  0.8+  0.7+
100411 C51  0.1+  0.9-    100412 C51  0.2+  0.5-    100413 C51  0.2-  0.0
100411 C51  0.5-  0.1+    100412 C51  0.0   0.7-    100413 C51  0.5+  0.3-
100411 C51  0.4-  0.0     100412 C51  0.8-  0.2+    100414 C51  0.2+  0.4-
100412 C51  0.4+  0.8+    100412 C51  0.0   0.2-    100414 C51  1.0-  0.2+
100412 C51  0.5-  0.2-    100413 C51  0.3-  0.2-
100412 C51  0.4+  0.5+    100413 C51  0.5+  0.6+

Ephemeris:
2010 GP67                a,e,i = 1.11, 0.11, 13                  q = 0.9946
Date    TT    R. A. (2000) Decl.     Delta      r     Elong.  Phase     V
2010 04 14    19 39.13   -18 08.4    0.180    1.020    90.3    79.6    22.1
2010 04 24    20 25.15   -03 04.7    0.185    1.009    85.9    83.6    22.3
2010 05 04    21 04.05   +10 16.6    0.203    1.001    82.3    86.1    22.6

Sonia Keys                   (C) Copyright 2010 MPC           M.P.E.C. 2010-H05

Read MPEC 2010-H04 Read MPEC 2010-H06


MPEC number:

Enter an MPEC number in one of the following forms:

  • 1997-B01 (the full form)
  • J97B01 (the packed version of the full form)
  • B01 (the abbreviated form)

Valid HTML 4.01!